Tracking 30692 objects as of 16-Jun-2025
HD Live streaming from Space Station
objects crossing your sky now

EXPLORER 29 (GEOS 1)

Track EXPLORER 29 (GEOS 1) now!
10-day predictions
EXPLORER 29 (GEOS 1) is classified as:


NORAD ID: 1726
Int'l Code: 1965-089A
Perigee: 1,124.3 km
Apogee: 2,278.0 km
Inclination: 59.4 °
Period: 120.3 minutes
Semi major axis: 8072 km
RCS: 1.3858 m2 (large)
Launch date: November 6, 1965
Source: United States (US)
Launch site: AIR FORCE EASTERN TEST RANGE (AFETR)
Your satellite tracking list
Your tracking list is empty




NASA's NSSDC Master Catalog

Two Line Element Set (TLE):
1 01726U 65089A   25166.91329824 -.00000073  00000-0  72483-5 0  9992
2 01726  59.3796 132.4683 0714628 341.9669  43.1351 11.97073316605815
Source of the keplerian elements: AFSPC